This is the latest recevied weather packets stored in our database for station/object LX0APE-4. If no packets are shown the sender has not sent any weather packets the latest 10 day(s).
| Time | Temp. | Humidity | Pressure | Rain* | Wind** | Luminosity | Snow |
|---|---|---|---|---|---|---|---|
| 1777469826 | 25° C | 20% | 5017.5 hPa | 0 mm | - | - | - |
| 1777469526 | 25.56° C | 18% | 5017.6 hPa | 0 mm | - | - | - |
| 1777469226 | 25.56° C | 20% | 5017.6 hPa | 0 mm | - | - | - |
| 1777468926 | 25.56° C | 22% | 5017.7 hPa | 0 mm | - | - | - |
| 1777468626 | 25° C | 21% | 5017.7 hPa | 0 mm | - | - | - |
| 1777468326 | 25° C | 21% | 5017.6 hPa | 0 mm | - | - | - |
| 1777468026 | 24.44° C | 23% | 5017.7 hPa | 0 mm | - | - | - |
| 1777467726 | 23.89° C | 23% | 5017.8 hPa | 0 mm | - | - | - |
| 1777467426 | 23.33° C | 23% | 5017.8 hPa | 0 mm | - | - | - |
| 1777467126 | 23.89° C | 23% | 5017.9 hPa | 0 mm | - | - | - |
| 1777466826 | 23.89° C | 23% | 5017.8 hPa | 0 mm | - | - | - |
| 1777466526 | 24.44° C | 22% | 5018 hPa | 0 mm | - | - | - |
| 1777466226 | 24.44° C | 23% | 5017.8 hPa | 0 mm | - | - | - |
| 1777465926 | 24.44° C | 24% | 5017.8 hPa | 0 mm | - | - | - |
| 1777465626 | 23.89° C | 25% | 5017.8 hPa | 0 mm | - | - | - |
| 1777465326 | 23.33° C | 25% | 5017.9 hPa | 0 mm | - | - | - |
| 1777465026 | 22.78° C | 26% | 5018.1 hPa | 0 mm | - | - | - |
| 1777464726 | 22.78° C | 26% | 5018 hPa | 0 mm | - | - | - |
| 1777464426 | 22.22° C | 27% | 5017.9 hPa | 0 mm | - | - | - |
| 1777464126 | 21.67° C | 28% | 5018 hPa | 0 mm | - | - | - |
| 1777463826 | 21.67° C | 28% | 5018.1 hPa | 0 mm | - | - | - |
| 1777463526 | 21.67° C | 27% | 5018.1 hPa | 0 mm | - | - | - |
| 1777463226 | 21.67° C | 28% | 5018.1 hPa | 0 mm | - | - | - |
| 1777462926 | 21.67° C | 28% | 5018.2 hPa | 0 mm | - | - | - |
| 1777462626 | 21.11° C | 29% | 5018 hPa | 0 mm | - | - | - |
* Rain latest hour (hover to see other rain measurements)
** Current wind speed in m/s (hover to see current wind gust speed)